TimeCEST,TemperatureF,Dew PointF,Humidity,Sea Level PressureIn,VisibilityMPH,Wind Direction,Wind SpeedMPH,Gust SpeedMPH,PrecipitationIn,Events,Conditions,WindDirDegrees,DateUTC
12:15 AM,66.2,59.0,78,30.15,-9999.0,NW,4.6,-,N/A,,Clear,320,2012-10-02 22:15:00
12:45 AM,66.2,57.2,73,30.15,-9999.0,NW,3.5,-,N/A,,Clear,320,2012-10-02 22:45:00
12:55 AM,66.2,57.2,73,30.15,-9999.0,NW,3.5,-,N/A,,Clear,320,2012-10-02 22:55:00
1:15 AM,64.4,57.2,77,30.15,-9999.0,WNW,4.6,-,N/A,,Clear,300,2012-10-02 23:15:00
1:45 AM,62.6,55.4,77,30.15,-9999.0,NW,5.8,-,N/A,,Clear,310,2012-10-02 23:45:00
1:55 AM,62.6,55.4,77,30.15,-9999.0,NW,5.8,-,N/A,,Clear,310,2012-10-02 23:55:00
2:00 AM,63,55,69,30.16,6,NW,5.8,,,,,310,2012-10-03 00:00:00
2:15 AM,62.6,55.4,77,30.15,-9999.0,NW,4.6,-,N/A,,Clear,320,2012-10-03 00:15:00
2:45 AM,62.6,55.4,77,30.15,-9999.0,NW,5.8,-,N/A,,Clear,320,2012-10-03 00:45:00
2:55 AM,62.6,55.4,77,30.15,-9999.0,NW,5.8,-,N/A,,Clear,320,2012-10-03 00:55:00
3:15 AM,62.6,55.4,77,30.15,-9999.0,NW,5.8,-,N/A,,Clear,320,2012-10-03 01:15:00
3:45 AM,60.8,55.4,82,30.15,6.2,NW,5.8,-,N/A,,Partly Cloudy,320,2012-10-03 01:45:00
3:55 AM,60.8,55.4,82,30.15,6.2,NW,5.8,-,N/A,,Partly Cloudy,320,2012-10-03 01:55:00
4:15 AM,60.8,55.4,82,30.15,6.2,NW,4.6,-,N/A,,Partly Cloudy,320,2012-10-03 02:15:00
4:45 AM,60.8,53.6,77,30.12,6.2,NW,8.1,-,N/A,,Partly Cloudy,310,2012-10-03 02:45:00
4:55 AM,60.8,53.6,77,30.12,6.2,NW,8.1,-,N/A,,Partly Cloudy,310,2012-10-03 02:55:00
5:00 AM,60,54,75,30.15,6,NW,8.1,,,,Scattered Clouds,310,2012-10-03 03:00:00
5:15 AM,60.8,53.6,77,30.12,6.2,NW,6.9,-,N/A,,Partly Cloudy,310,2012-10-03 03:15:00
5:45 AM,59.0,53.6,82,30.12,6.2,WNW,5.8,-,N/A,,Partly Cloudy,290,2012-10-03 03:45:00
5:55 AM,59.0,53.6,82,30.12,6.2,WNW,5.8,-,N/A,,Partly Cloudy,290,2012-10-03 03:55:00
6:15 AM,59.0,53.6,82,30.12,6.2,WNW,5.8,-,N/A,,Partly Cloudy,300,2012-10-03 04:15:00
6:45 AM,59.0,51.8,77,30.12,6.2,Calm,Calm,-,N/A,,Partly Cloudy,0,2012-10-03 04:45:00
6:55 AM,59.0,51.8,77,30.12,6.2,Calm,Calm,-,N/A,,Partly Cloudy,0,2012-10-03 04:55:00
7:15 AM,59.0,51.8,77,30.12,6.2,NNW,2.3,-,N/A,,Partly Cloudy,330,2012-10-03 05:15:00
7:45 AM,55.4,50.0,82,30.12,6.2,NNW,2.3,-,N/A,,Partly Cloudy,330,2012-10-03 05:45:00
7:55 AM,55.4,50.0,82,30.12,6.2,NNW,2.3,-,N/A,,Partly Cloudy,330,2012-10-03 05:55:00
8:00 AM,56,50,75,30.14,12,NNW,2.3,,,,Scattered Clouds,330,2012-10-03 06:00:00
8:15 AM,59.0,51.8,77,30.15,6.2,NW,4.6,-,N/A,,Scattered Clouds,320,2012-10-03 06:15:00
8:45 AM,60.8,53.6,77,30.15,6.2,NW,5.8,-,N/A,,Partly Cloudy,310,2012-10-03 06:45:00
8:55 AM,60.8,53.6,77,30.15,6.2,NW,5.8,-,N/A,,Partly Cloudy,310,2012-10-03 06:55:00
9:15 AM,64.4,60.8,88,30.15,6.2,WNW,4.6,-,N/A,,Partly Cloudy,300,2012-10-03 07:15:00
9:45 AM,66.2,60.8,83,30.15,6.2,NNW,5.8,-,N/A,,Partly Cloudy,340,2012-10-03 07:45:00
9:55 AM,66.2,60.8,83,30.15,6.2,NNW,5.8,-,N/A,,Partly Cloudy,340,2012-10-03 07:55:00
10:15 AM,69.8,60.8,73,30.15,6.2,NW,4.6,-,N/A,,Partly Cloudy,310,2012-10-03 08:15:00
10:45 AM,71.6,60.8,69,30.15,6.2,NW,5.8,-,N/A,,Partly Cloudy,310,2012-10-03 08:45:00
10:55 AM,71.6,60.8,69,30.15,6.2,NW,5.8,-,N/A,,Partly Cloudy,310,2012-10-03 08:55:00
11:15 AM,73.4,60.8,65,30.15,6.2,West,5.8,-,N/A,,Partly Cloudy,280,2012-10-03 09:15:00
11:45 AM,75.2,60.8,61,30.15,6.2,SSE,4.6,-,N/A,,Partly Cloudy,150,2012-10-03 09:45:00
11:55 AM,75.2,60.8,61,30.15,6.2,SSE,4.6,-,N/A,,Partly Cloudy,150,2012-10-03 09:55:00
12:15 PM,77.0,59.0,54,30.12,6.2,NW,8.1,-,N/A,,Partly Cloudy,310,2012-10-03 10:15:00
12:45 PM,78.8,57.2,47,30.12,6.2,NNW,9.2,-,N/A,,Partly Cloudy,330,2012-10-03 10:45:00
12:55 PM,78.8,57.2,47,30.12,6.2,NNW,9.2,-,N/A,,Partly Cloudy,330,2012-10-03 10:55:00
1:15 PM,78.8,55.4,44,30.12,6.2,NNW,8.1,-,N/A,,Partly Cloudy,330,2012-10-03 11:15:00
1:45 PM,78.8,55.4,44,30.12,6.2,West,5.8,-,N/A,,Partly Cloudy,280,2012-10-03 11:45:00
1:55 PM,78.8,55.4,44,30.12,6.2,West,5.8,-,N/A,,Partly Cloudy,280,2012-10-03 11:55:00
2:00 PM,80,55,32,30.13,19,West,5.8,,,,Scattered Clouds,280,2012-10-03 12:00:00
2:15 PM,80.6,55.4,42,30.12,6.2,WNW,3.5,-,N/A,,Partly Cloudy,290,2012-10-03 12:15:00
2:45 PM,78.8,57.2,47,30.09,6.2,South,9.2,-,N/A,,Partly Cloudy,170,2012-10-03 12:45:00
3:15 PM,78.8,59.0,51,30.09,6.2,South,9.2,-,N/A,,Partly Cloudy,180,2012-10-03 13:15:00
3:45 PM,78.8,60.8,54,30.09,6.2,South,9.2,-,N/A,,Partly Cloudy,180,2012-10-03 13:45:00
3:55 PM,78.8,60.8,54,30.09,6.2,South,9.2,-,N/A,,Partly Cloudy,180,2012-10-03 13:55:00
4:15 PM,78.8,60.8,54,30.09,6.2,South,8.1,-,N/A,,Partly Cloudy,180,2012-10-03 14:15:00
4:45 PM,78.8,59.0,51,30.06,6.2,South,5.8,-,N/A,,Partly Cloudy,190,2012-10-03 14:45:00
4:55 PM,78.8,59.0,51,30.06,6.2,South,5.8,-,N/A,,Partly Cloudy,190,2012-10-03 14:55:00
5:00 PM,78,60,43,30.09,19,South,5.8,,,,Scattered Clouds,190,2012-10-03 15:00:00
5:15 PM,78.8,55.4,44,30.06,6.2,WSW,5.8,-,N/A,,Partly Cloudy,240,2012-10-03 15:15:00
5:45 PM,78.8,51.8,39,30.06,6.2,NW,11.5,-,N/A,,Partly Cloudy,310,2012-10-03 15:45:00
5:55 PM,78.8,51.8,39,30.06,6.2,NW,11.5,-,N/A,,Partly Cloudy,310,2012-10-03 15:55:00
6:15 PM,78.8,50.0,36,30.06,6.2,NW,10.4,-,N/A,,Partly Cloudy,310,2012-10-03 16:15:00
6:45 PM,75.2,51.8,44,30.06,6.2,NW,11.5,-,N/A,,Partly Cloudy,320,2012-10-03 16:45:00
6:55 PM,75.2,51.8,44,30.06,6.2,NW,11.5,-,N/A,,Partly Cloudy,320,2012-10-03 16:55:00
7:15 PM,73.4,53.6,50,30.09,6.2,NNW,9.2,-,N/A,,Partly Cloudy,330,2012-10-03 17:15:00
7:45 PM,73.4,57.2,57,30.09,-9999.0,NNW,9.2,-,N/A,,Clear,330,2012-10-03 17:45:00
7:55 PM,73.4,57.2,57,30.09,-9999.0,NNW,9.2,-,N/A,,Clear,330,2012-10-03 17:55:00
8:00 PM,73,56,46,30.11,19,NNW,9.2,,,,,330,2012-10-03 18:00:00
8:15 PM,71.6,57.2,60,30.09,-9999.0,NNW,8.1,-,N/A,,Clear,330,2012-10-03 18:15:00
8:45 PM,69.8,59.0,68,30.09,-9999.0,NNW,5.8,-,N/A,,Clear,340,2012-10-03 18:45:00
8:55 PM,69.8,59.0,68,30.09,-9999.0,NNW,5.8,-,N/A,,Clear,340,2012-10-03 18:55:00
9:15 PM,69.8,59.0,68,30.09,-9999.0,NNW,6.9,-,N/A,,Clear,330,2012-10-03 19:15:00
9:45 PM,69.8,60.8,73,30.12,-9999.0,NNW,8.1,-,N/A,,Clear,330,2012-10-03 19:45:00
9:55 PM,69.8,60.8,73,30.12,-9999.0,NNW,8.1,-,N/A,,Clear,330,2012-10-03 19:55:00
10:15 PM,68.0,60.8,78,30.12,-9999.0,NW,6.9,-,N/A,,Clear,320,2012-10-03 20:15:00
10:45 PM,68.0,60.8,78,30.12,-9999.0,NW,9.2,-,N/A,,Clear,320,2012-10-03 20:45:00
10:55 PM,68.0,60.8,78,30.12,-9999.0,NW,9.2,-,N/A,,Clear,320,2012-10-03 20:55:00
11:00 PM,68,60,69,30.13,9,NW,9.2,,,,,320,2012-10-03 21:00:00
11:15 PM,68.0,59.0,73,30.12,-9999.0,NW,6.9,-,N/A,,Clear,320,2012-10-03 21:15:00
11:45 PM,66.2,59.0,78,30.12,-9999.0,WNW,4.6,-,N/A,,Clear,300,2012-10-03 21:45:00
11:55 PM,66.2,59.0,78,30.12,-9999.0,WNW,4.6,-,N/A,,Clear,300,2012-10-03 21:55:00